OpenBCM V1.08-5-g2f4a (Linux)

Packet Radio Mailbox

IZ3LSV

[San Dona' di P. JN]

 Login: GUEST





  
I0OJJ  > KEPS     12.04.25 02:25l 352 Lines 16783 Bytes #23 (0) @ AMSAT
BID : ORB25102.1
Read: GUEST
Subj: 2Line Orbital Elements 25102.AMSAT
Path: IZ3LSV<I0OJJ
Sent: 250412/0025z @:I0OJJ.ITA.EU [Rome] obcm1.08-6-g5b69
From: I0OJJ @ I0OJJ.ITA.EU (Gustavo)
To:   KEPS @ AMSAT
X-Info: This message was generated automatically


QST de W1STR

AMSAT Orbital Elements for Amateur Satellites in TLE Format
From Orbital Analysis Office
New England Sci-Tech STEM Education Center
Natick, MA April 12, 2025
To all radio amateurs


These element sets describe the orbits of various satellites 
in use by the amateur radio community. For details see:
www.amsat.org/keplerian-elements-formats/

A daily update of element sets is available at:
www.amsat.org/tle/daily-bulletin.txt
or without bulletin text:
www.amsat.org/tle/dailytle.txt


AO-07
1 07530U 74089B   25101.77953590 -.00000031  00000-0  95003-4 0  9993
2 07530 101.9950 105.4144 0011912 233.3230 300.3323 12.53688196306698
UO-11
1 14781U 84021B   25101.13986903  .00003337  00000-0  35914-3 0  9995
2 14781  97.7488  68.7141 0008165 160.9274 199.2251 14.89132974213791
AO-27
1 22825U 93061C   25101.12576809  .00000294  00000-0  12967-3 0  9998
2 22825  98.7423 162.3697 0007293 289.2551  70.7842 14.30772038645481
FO-29
1 24278U 96046B   25100.86507534  .00000039  00000-0  72953-4 0  9996
2 24278  98.5822   2.6034 0350621 137.1826 225.7197 13.53243231414693
NOAA-15
1 25338U 98030A   25101.77131739  .00000415  00000-0  18835-3 0  9996
2 25338  98.5411 128.3033 0010643 165.2641 194.8852 14.26938940400018
GO-32
1 25397U 98043D   25101.19091391  .00000268  00000-0  13620-3 0  9993
2 25397  98.9664  79.0852 0001998  51.2329 308.9027 14.24293120390054
ISS
1 25544U 98067A   25101.84199000  .00013396  00000-0  24688-3 0  9993
2 25544  51.6356 275.6334 0005114  31.4423 328.6870 15.49456260504876
NO-44
1 26931U 01043C   25100.84817947  .00000510  00000-0  22200-3 0  9990
2 26931  67.0497 282.2730 0005564 269.8344  90.2120 14.31691157228718
SO-50
1 27607U 02058C   25101.08416128  .00004134  00000-0  53442-3 0  9999
2 27607  64.5565  24.1562 0049287 348.2605  11.7347 14.81391251200621
CO-55
1 27844U 03031E   25100.60234581  .00000882  00000-0  40340-3 0  9991
2 27844  98.6786 109.6456 0009746   9.4534 350.6826 14.23930550130100
CO-57
1 27848U 03031J   25101.01500525  .00000697  00000-0  32707-3 0  9997
2 27848  98.6814 110.1034 0009958  24.8634 335.3022 14.23274820129941
RS-22
1 27939U 03042A   25101.89075832  .00002992  00000-0  48309-3 0  9999
2 27939  98.3225 269.9468 0011416 190.3654 275.7783 14.72137226152198
NOAA-18
1 28654U 05018A   25101.80289622  .00000422  00000-0  24738-3 0  9990
2 28654  98.8431 181.9383 0013084 297.7294  62.2551 14.13572348 25443
CO-58
1 28895U 05043F   25101.81143819  .00004518  00000-0  74797-3 0  9993
2 28895  98.2403 245.4673 0015702 131.6063 228.6491 14.70716856 38532
CO-65
1 32785U 08021C   25100.79700607  .00012797  00000-0  93916-3 0  9997
2 32785  97.7799  71.5678 0011503  59.2759 300.9598 15.03562594920090
AAUSAT2
1 32788U 08021F   25101.85913413  .00282221  00000-0  24227-2 0  9998
2 32788  97.6017  97.2205 0008392 133.6273 226.5685 15.68469106924232
CO-66
1 32791U 08021J   25100.44995765  .00024551  00000-0  12517-2 0  9995
2 32791  97.7246  79.2420 0005537  47.2165 312.9533 15.16736951921370
RS-30
1 32953U 08025A   25101.81315011  .00000037  00000-0  19324-3 0  9998
2 32953  82.4985 263.7279 0019791 171.6260 188.5154 12.43162170766239
NOAA-19
1 33591U 09005A   25101.79976433  .00000382  00000-0  22753-3 0  9997
2 33591  99.0019 166.1633 0014181 166.0543 194.1024 14.13337265833805
SRMSAT
1 37841U 11058D   25101.79530118  .00000633  00000-0  20018-3 0  9997
2 37841  19.9705 150.2723 0011845 137.4729  20.3861 14.11408842697014
ZACUBE-1
1 39417U 13066B   25100.80277808  .00009207  00000-0  81252-3 0  9997
2 39417  97.7738  58.1840 0043040 251.1386 108.5165 14.95902455615978
Delfi-N3xt
1 39428U 13066N   25101.71712976  .00012524  00000-0  13015-2 0  9997
2 39428  97.8366  20.0709 0085784 193.0080 166.8924 14.87314697610506
GOMX-1
1 39430U 13066Q   25101.84815889  .00004268  00000-0  66836-3 0  9997
2 39430  97.6916 324.1022 0133720  21.0352 339.6282 14.67341566606796
LO-74
1 39440U 13066AA  25101.09784193  .00010553  00000-0  10786-2 0  9994
2 39440  97.8449  46.1107 0063631  18.0510 342.2946 14.89240284613783
AO-73
1 39444U 13066AE  25101.38236687  .00013403  00000-0  10309-2 0  9998
2 39444  97.7680  63.1478 0039959 225.1268 134.6709 15.01183526615298
DTUSAT-2
1 40030U 14033W   25101.42699162  .00013276  00000-0  88576-3 0  9992
2 40030  98.0508  70.4479 0006943 257.4491 102.5959 15.07163480587998
EO-80
1 40032U 14033Y   25101.38379963  .00015449  00000-0  10275-2 0  9997
2 40032  98.0396  70.1393 0008078 186.4581 173.6542 15.07234822587973
LILACSAT-2
1 40908U 15049K   25101.80005166  .00020885  00000-0  57372-3 0  9995
2 40908  97.5110 120.7786 0009919  24.6927 335.4790 15.37207087529192
IO-86
1 40931U 15052B   25038.81889873  .00001817  00000-0  15548-3 0  9993
2 40931   6.0001 108.1159 0012838 187.7041 172.2889 14.78568669506492
Horyu-4
1 41340U 16012D   25101.19337126  .00040700  00000-0  12048-2 0  9991
2 41340  30.9961 170.4421 0008748 159.6104 200.4891 15.33630847503657
Lapan A3
1 41603U 16040E   25101.88613815  .00006762  00000-0  23985-3 0  9995
2 41603  97.1386 108.8124 0013045 115.0529 245.2068 15.29302613488818
CAS-2T
1 41847U 16066G   25100.85772161  .00002217  00000-0  32418-3 0  9991
2 41847  98.4226 175.8341 0346685 359.3769   0.6944 14.43309267442406
CAS-4B
1 42759U 17034B   25101.86686357  .00076361  00000-0  10833-2 0  9990
2 42759  43.0091 309.8455 0019544 243.7737 116.1116 15.55285878433434
CAS-4A
1 42761U 17034D   25101.87468297  .00077889  00000-0  10718-2 0  9993
2 42761  43.0127 307.4686 0020997 248.2487 111.6140 15.56065171433455
TechnoSat
1 42829U 17042E   25101.73309111  .00007020  00000-0  54982-3 0  9993
2 42829  97.3917 273.2587 0015042 116.1494 244.1280 15.01211397421890
AO-91
1 43017U 17073E   25100.59013174  .00019184  00000-0  99978-3 0  9999
2 43017  97.5346 332.8946 0176503  11.2769 349.2332 15.03464976400199
S-Net D
1 43186U 18014G   25100.71850460  .00009677  00000-0  58190-3 0  9990
2 43186  97.5685   4.2517 0011313  74.3280 285.9198 15.11011037393339
S-Net B
1 43187U 18014H   25100.72315742  .00009915  00000-0  59627-3 0  9992
2 43187  97.5693   4.2251 0011970  70.1850 290.0669 15.10993319393331
S-Net A
1 43188U 18014J   25101.18265194  .00010817  00000-0  64954-3 0  9991
2 43188  97.5697   4.8220 0011856  69.5977 290.6525 15.11026773393400
S-Net C
1 43189U 18014K   25100.72543359  .00009983  00000-0  60018-3 0  9992
2 43189  97.5714   4.3736 0013274  63.9120 296.3475 15.10989959391882
Ten-Koh
1 43677U 18084G   25101.84261088  .00005420  00000-0  43833-3 0  9999
2 43677  98.0936 271.7606 0009927 114.0244 246.2018 15.00187655351433
PO-101
1 43678U 18084H   25101.48050622  .00005137  00000-0  44056-3 0  9993
2 43678  98.0985 275.3725 0009515 123.1762 237.0373 14.97943703351531
QO-100
1 43700U 18090A   25101.83655894  .00000145  00000-0  00000+0 0  9998
2 43700   0.0203 161.7542 0001782 255.2626 110.2286  1.00273422 23593
MinXSS-2
1 43758U 18099A   25100.67264642  .00029833  00000-0  12524-2 0  9990
2 43758  97.5076 166.5942 0011580  13.4193 346.7349 15.23352727347841
AO-95
1 43770U 18099N   25100.87291350  .00017019  00000-0  89125-3 0  9997
2 43770  97.4984 159.6544 0012071  66.4286 293.8213 15.15817254347507
RANGE-A
1 43773U 18099R   25100.84557627  .00008606  00000-0  55682-3 0  9992
2 43773  97.4552 150.9850 0012376  45.0362 315.1868 15.08351790347213
MOVE-II
1 43780U 18099Y   25101.83867364  .00150257  00000-0  21869-2 0  9991
2 43780  97.4710 173.9549 0001430 273.8284  86.2806 15.55217182348611
SNUSat 2
1 43782U 18099AA  25101.39203489  .00015086  00000-0  84552-3 0  9995
2 43782  97.4664 157.3901 0011837   6.7393 353.3996 15.13430383347548
SnugLite
1 43784U 18099AC  25100.65160202  .00018071  00000-0  93968-3 0  9998
2 43784  97.4480 156.1143 0003460  32.3174 327.8270 15.16111140347558
ITASat 1
1 43786U 18099AE  25101.40132707  .00013304  00000-0  77666-3 0  9994
2 43786  97.4634 157.0757 0015785  56.4653 303.8083 15.11945247347514
EAGLET 1
1 43790U 18099AJ  25100.86138688  .00007847  00000-0  50765-3 0  9998
2 43790  97.4829 156.6887 0012993  41.7792 318.4426 15.08381068347067
ESEO
1 43792U 18099AL  25100.86292657  .00003918  00000-0  30038-3 0  9993
2 43792  97.4568 150.7365 0012133  19.9050 340.2646 15.02322507346855
CSIM
1 43793U 18099AM  25101.68288425  .00139108  00000-0  20054-2 0  9990
2 43793  97.4890 175.9443 0004405 297.5380  62.5427 15.55510839348435
JO-97
1 43803U 18099AX  25101.66834203  .00019217  00000-0  91670-3 0  9992
2 43803  97.4724 161.3198 0006826   2.5673 357.5595 15.19103678347821
Suomi 100
1 43804U 18099AY  25100.73520184  .00018738  00000-0  95023-3 0  9993
2 43804  97.4795 159.8513 0012072   3.4944 356.6371 15.16928513347624
ISAT
1 43879U 18111D   25100.72969516  .00033195  00000-0  12508-2 0  9995
2 43879  97.5998  13.9115 0011673  58.4200 301.8176 15.26948134344557
UWE-4
1 43880U 18111E   25101.22079631  .00029911  00000-0  12446-2 0  9995
2 43880  97.5944  13.2780 0014871  64.1482 296.1286 15.23612324342585
Sparrow
1 43881U 18111F   25100.75664794  .00034360  00000-0  12538-2 0  9999
2 43881  97.6133  16.5971 0010289  89.5023 270.7395 15.28014996344640
Prox-1
1 44339U 19036A   25101.32384960  .00021846  00000-0  28942-2 0  9994
2 44339  23.9962  90.6145 0007523 119.5991 240.5256 14.78365468309326
SONATE
1 44400U 19038Q   25100.60273081  .00150415  00000-0  11696-2 0  9999
2 44400  97.7012 120.5100 0010231 114.5311 245.7018 15.71236056320099
Taurus 1
1 44530U 19059C   25101.80014135  .00015251  00000-0  28639-2 0  9995
2 44530  98.5987 238.4688 0010464 211.4105 148.6472 14.64748439295336
